SKYNET 5B

Last updated on Wed Sep 17 2025 00:02:46 GMT+0000 (Coordinated Universal Time)

1 32294U 07056B 25259.58867204 .00000122 00000+0 00000+0 0 9994 2 32294 4.5507 76.7811 0003659 93.8811 62.1360 1.00270475 65450
UTC large
Height (km)
Speed (km/s)
/
Latitude / Longitude
Inclination (degrees)
Orbital Period (minutes)
Azimuth
Elevation
Range (km)
Doppler Factor

Next 0 passes for location: London (51.5072 / 0.1276)

Sorry there are no passes over London.